Showing default

O3B FM7, 40080

Orbit data source: Space-Track

O3B FM7, 40080 is a payload satellite owned by O3B (JE) that was launched on Thu, 10 Jul 2014 UTC via a SOYUZ-ST-B launch vehicle from the French Guiana (FRGUI). Payload-class satellites include a variety of spacecraft equipped with specific instruments for various scientific and technological missions. These include communications satellites like Starlink; space stations such as the ISS; scientific satellites like the Hubble; Earth observation satellites from companies like Planet Labs, Umbra, and HawkEye 360; GPS; miniature CubeSats for education and research; and military/defense satellites.

Loading next visibility...
Identifier
40080, 2014-038B
Orbit
Active
Last TLE update
2 days ago
Origin
Manufacturer
Thales Alenia
Mission
Operational Commercial Communications
Bus & Motor
PRISMA?, LS-400 AOCS?
Mass
700 kg wet, ~500 kg dry
Launch date (UTC)
2014-07-10 (11 years ago)
Launch vehicle
SOYUZ-ST-B
Launch site
French Guiana (FRGUI)
Object type
Payload
Rocket body
Debris
Shape & HBR
Trap Box + 2 Pan, 12 m
Radar Cross Section
21.980 m², Large (>1 m²)

Expand to show TLE details & history

TLE from 2 days ago
0 O3B FM7
1 40080U 14038B   25185.04245805 -.00000020  00000-0  00000-0 0  9990
2 40080   0.0515  10.5536 0003494 122.9187 226.5558  5.00115545200466
Epoch: 2025-07-04T01:01Z
TLE epoch observation values (Epoch: 2025-07-04T01:01:08.375Z)
Latitude
-0.01032°
Longitude
62.41462°
Altitude
8,067.841 km
Speed
5.253 km/s
True Right ascension
00h 00m 00s
True Declination
0° 00' 37"
Sunlit
Object was in daylight at epoch
Visualization orbit readout
Latitude
0.00801°
Longitude
80.14011°
Altitude
8,066.648 km
Speed
5.253 km/s
Apparent Right ascension
01h 10m 46s
Apparent Declination
-11° 52' 44"
Sunlit
Object is in daylight
Visualization observer readout
Local Sidereal Time
13:10:23
Azimuth
359.802° N
Elevation
-61.963°
Doppler factor
1
Orbital elements
Apogee altitude
8,073.996 km
Perigee altitude
8,063.9 km
Semi-major axis
14,447.085 km
Eccentricity
0.00035
Inclination
0.0515°
RAAN
10.5536°
Arg. of periapsis
122.9187°
True anomaly
Unknown
Mean anomaly
226.5558°
Eccentric anomaly
Unknown
Mean motion
1.24989 °/min
Orbital period
288.02 mins
BSTAR
0
Loading maneuver chart data...
Loading SW <> Apogee altitude chart data...
Loading historical data...
Loading historical data...
Loading historical data...
Loading historical data...
Loading historical data...
Loading historical data...
Loading historical data...
Other satellites on launch #38 in the year 2014 (2014-07-10 UTC)

O3B FM7 Visibility forecast

Observer location: undefined°, undefined°

Span
Click to sort rows by Start time (UTC) header in descending order
Start Az.
Max El. time (UTC)
Max El. Az.
Max El.
End time (UTC)
End Az.
79 mins2025-07-06 03:33:44.536Z232.439° WSW2025-07-06 04:13:44.536Z179.686° S24.329°2025-07-06 04:52:44.536Z128.215° SE
79 mins2025-07-06 09:34:44.536Z231.423° WSW2025-07-06 10:13:44.536Z179.765° S24.346°2025-07-06 10:53:44.536Z127.231° SE
79 mins2025-07-06 15:34:44.536Z231.524° WSW2025-07-06 16:13:44.536Z179.804° S24.411°2025-07-06 16:53:44.536Z127.178° SE
78 mins2025-07-06 21:34:44.536Z231.548° WSW2025-07-06 22:13:44.536Z179.725° S24.393°2025-07-06 22:52:44.536Z128.163° SE
|